Regional Weather Roundup
Issued by NWS

Home | Current Version | Previous Version | Graphics & Text | Print | Product List | Glossary Off
Versions: 1 2 3 4 5 6 7 8 9 10 11 12 13 14 15 16 17 18 19 20 21 22 23 24 25 26 27 28 29 30 31 32 33 34 35 36 37 38 39 40 41 42 43 44 45 46 47 48 49 50

000
ASUS43 KDMX 240701
RWRIA

WEATHER ROUNDUP FOR IOWA
NATIONAL WEATHER SERVICE DES MOINES IA
200 AM CDT WED MAY 24 2017

NOTE: "FAIR" INDICATES FEW OR NO CLOUDS BELOW 12,000 FEET WITH NO
SIGNIFICANT WEATHER AND/OR OBSTRUCTIONS TO VISIBILITY.

* - THESE STATIONS ARE NOT NWS STATIONS...THUS NOT UNDER NWS
QUALITY CONTROL.  THEY ALSO DO NOT REPORT WEATHER SUCH
AS PRECIPITATION OR FOG.

IAZ001>003-012>014-020>022-031>034-043>046-240800-
   NORTHWEST IOWA

CITY           SKY/WX    TMP DP  RH WIND       PRES   REMARKS
CARROLL *      CLOUDY    52  52 100 NW14      29.75F
CHEROKEE *     PTCLDY    47  47  99 N5        29.80F
DENISON *      CLOUDY    50  46  87 N6        29.79F
LE MARS *      CLEAR     48  46  93 N12       29.83F
ORANGE CITY *  CLEAR     46  45  93 N8        29.82F
SHELDON *      CLEAR     45  43  93 N9          N/A
SIOUX CITY     PTCLDY    47  47 100 NW9       29.82F
SPENCER        PTCLDY    49  45  86 N9        29.79F
STORM LAKE *   CLOUDY    50  46  87 N13       29.78F
$$

IAZ055>058-069>071-079>083-090>094-240800-
   SOUTHWEST IOWA

CITY           SKY/WX    TMP DP  RH WIND       PRES   REMARKS
ATLANTIC *     CLOUDY    50  48  93 N9        29.76S
AUDUBON *      LGT RAIN  50  46  87 NW5       29.76F
CLARINDA *     CLOUDY    50  48  93 NW9       29.78F
COUNCIL BLFS * MOCLDY    50  50 100 NW9G15    29.78F
CRESTON *      MOCLDY    46  46 100 NW7       29.74F
HARLAN  *      CLOUDY    50  48  93 NW12G17   29.80F
LAMONI         CLEAR     46  45  96 NW8       29.72F
RED OAK *      CLOUDY    50  48  93 NW9       29.77F
SHENANDOAH *   MOCLDY    50  48  93 NW8       29.78F
$$

IAZ047>049-059>061-072>074-084-240800-
   CENTRAL IOWA

CITY           SKY/WX    TMP DP  RH WIND       PRES   REMARKS
AMES           LGT RAIN  51  50  96 N12       29.70F
ANKENY *       CLOUDY    52  50  93 NW7       29.71F
BOONE *        RAIN      50  50 100 N14       29.70F
CHARITON *     MOCLDY    46  46 100 NW7       29.70F
DES MOINES     LGT RAIN  51  49  92 NW6       29.70F FOG
GRINNELL*      CLEAR     46  44  95 NW5       29.69F
KNOXVILLE *    CLEAR     46  45  93 NW7       29.68F
MARSHALLTOWN   CLOUDY    51  51 100 N9        29.68F
NEWTON *       CLOUDY    48  46  93 NW6       29.68F
PELLA *        PTCLDY    47  46  95 NW3       29.70F
PERRY *        CLOUDY    51  50  95 NW10      29.73F
$$

IAZ004>006-015-016-023>025-035-036-240800-
   NORTH CENTRAL IOWA

CITY           SKY/WX    TMP DP  RH WIND       PRES   REMARKS
ALGONA *       CLOUDY    52  50  93 N14G20    29.76S
CLARION *      CLOUDY    52  52 100 N10G20    29.72F
ESTHERVILLE    CLOUDY    49  47  93 N13       29.78F
FORT DODGE *   CLOUDY    50  46  87 N7        29.75F
MASON CITY     CLOUDY    51  48  89 N14       29.74F
FOREST CITY *  CLOUDY    52  46  82 N13       29.74S
WEBSTER CITY * CLOUDY    52  50  93 N15       29.70F
IOWA FALLS *   RAIN      52  50  92 N12G17    29.71F
$$

IAZ007>011-017>019-026>030-037>042-050>054-066-240800-
   NORTHEAST IOWA

CITY           SKY/WX    TMP DP  RH WIND       PRES   REMARKS
CEDAR RAPIDS   CLEAR     45  45 100 NW5       29.66F
CHARLES CITY * CLOUDY    52  50  93 NE12      29.70F
CLINTON *      FOG       48  48 100 CALM      29.65F VSB 1/4
DECORAH *      CLOUDY    50  48  93 N8G14     29.69S
DUBUQUE        CLOUDY    51  50  96 N7        29.65F
MONTICELLO *   CLOUDY    52  50  93 N7        29.65F
OELWEIN *      CLOUDY    52  52 100 NE7       29.68F
WATERLOO       CLOUDY    52  50  93 NE9       29.67F
$$

IAZ064-065-067-068-078-240800-
   EAST CENTRAL IOWA

CITY           SKY/WX    TMP DP  RH WIND       PRES   REMARKS
DAVENPORT      MOCLDY    51  48  89 NW5       29.66F
IOWA CITY      MOCLDY    49  46  90 CALM      29.67F
MT. PLEASANT * CLOUDY    48  48 100 W5        29.67F
MUSCATINE *    PTCLDY    50  46  87 W5        29.66F
QUAD CITIES    PTCLDY    50  47  89 CALM      29.65F
$$

IAZ062-063-075>077-085>089-095>099-240800-
   SOUTHEAST IOWA

CITY           SKY/WX    TMP DP  RH WIND       PRES   REMARKS
BURLINGTON     PTCLDY    49  48  97 W5        29.66F
FAIRFIELD *    CLEAR     48  45  87 W6        29.67F
FORT MADISON * MOCLDY    48  48 100 W5        29.67F
KEOKUK *       MOCLDY    50  48  93 W6        29.66F
OSKALOOSA *      N/A     45  43  94 NW3       29.69S
OTTUMWA        CLEAR     45  44  97 W7        29.68F
WASHINGTON *   CLOUDY    52  50  93 CALM      29.67F
$$

ABBREVIATIONS USED IN REMARKS
   TC - TEMPERATURES IN CELSIUS
  WCI - WIND CHILL INDEX
   HX - HEAT INDEX
  VSB - VISIBILITY
$$





USA.gov is the U.S. government's official web portal to all federal, state and local government web resources and services.